User: anonymous   Login
Location: Ammerl�gen
(47.2167°N, 9.6000°E)
Time: 19:11:51
(UTC+00:00)
Language:

ITUPSAT 1 - Orbit

View from above orbital plane
View from above orbital plane
View from above satellite
View from above satellite

Ground track
Ground track

The orbit data is extracted from the following two-line orbital elements,

1 35935U 09051E   21341.11896986  .00000182  00000-0  52752-4 0  9995
2 35935  98.5911 188.3085 0007110 297.2745  62.7727 14.55800236647921
Epoch (UTC): 07 December 2021 02:51:18
Eccentricity: 0.0007110
inclination: 98.5911°
perigee height: 702 km
apogee height: 712 km
right ascension of ascending node: 188.3085°
argument of perigee: 297.2745°
revolutions per day: 14.55800236
mean anomaly at epoch: 62.7727°
orbit number at epoch: 64792

The dashed part of the orbit path shows where the satellite is in the earth's shadow,  

DLR